Temperature
-3 -3 -3 -3 -4 -4 -4 -3 -3 -3 -3 -3 -3 -4 -4 -3 -4 -4 -4 -4 -4 -3 -3 -3 -2 -2 -2 -2 -2 -2 -2 -2 -2 -2 -2 -2 -3 -3 -3 -3 -3 -3 -3 -3
-4 -3 -4 -4 -4 -4 -4 -4 -5 -4 -4 -4 -4 -4 -5 -4 -4 -4 -4 -4 -4 -4 -4 -3 -3 -3 -3 -2 -3 -3 -2 -3 -3 -3 -3 -3 -3 -3 -3 -3 -3 -3 -4 -4
-4 -4 -4 -3 -4 -5 -5 -6 -5 -4 -4 -5 -6 -6 -5 -5 -5 -5 -5 -5 -4 -4 -4 -4 -4 -4 -3 -3 -3 -3 -3 -3 -3 -4 -4 -3 -4 -4 -4 -4 -4 -4 -4 -4
-4 -4 -3 -2 -5 -5 -5 -5 -6 -6 -6 -6 -6 -5 -5 -5 -5 -5 -5 -5 -5 -5 -4 -4 -4 -4 -4 -4 -4 -4 -4 -4 -4 -4 -4 -4 -4 -4 -5 -5 -5 -5 -5 -5
-5 -4 -4 -3 -5 -6 -6 -5 -6 -7 -7 -6 -6 -6 -5 -5 -5 -5 -6 -5 -5 -5 -5 -5 -5 -5 -5 -5 -5 -5 -5 -5 -5 -5 -5 -5 -5 -5 -5 -5 -5 -5 -5 -5
-5 -4 -4 -3 -6 -6 -5 -5 -6 -7 -7 -7 -7 -6 -6 -5 -6 -6 -6 -6 -6 -6 -5 -5 -5 -5 -5 -5 -5 -5 -5 -5 -5 -6 -6 -6 -6 -6 -6 -6 -6 -6 -6 -6
-6 -5 -5 -6 -7 -6 -4 -4 -6 -6 -6 -7 -7 -7 -6 -6 -6 -6 -6 -6 -6 -6 -6 -6 -6 -6 -6 -6 -6 -6 -6 -6 -6 -6 -6 -6 -6 -7 -7 -7 -7 -7 -7 -7
-7 -6 -5 -7 -8 -7 -6 -6 -6 -6 -6 -7 -7 -7 -7 -7 -7 -7 -7 -7 -7 -7 -6 -6 -6 -6 -6 -6 -6 -6 -7 -6 -6 -7 -7 -7 -7 -7 -7 -7 -8 -8 -8 -8
-7 -5 -6 -7 -7 -6 -6 -6 -6 -7 -7 -7 -7 -7 -8 -8 -8 -8 -8 -8 -7 -7 -7 -7 -7 -7 -7 -7 -7 -7 -7 -7 -7 -7 -7 -8 -8 -8 -8 -8 -8 -8 -8 -9
-8 -8 -8 -7 -7 -6 -6 -7 -7 -7 -7 -7 -8 -8 -8 -8 -8 -8 -8 -8 -8 -8 -8 -7 -7 -7 -7 -8 -8 -8 -8 -8 -8 -8 -8 -8 -8 -9 -9 -9 -9 -9 -9 -9
-9 -9 -8 -7 -7 -7 -7 -7 -7 -7 -8 -8 -8 -8 -9 -9 -9 -9 -8 -8 -8 -8 -8 -8 -8 -8 -8 -8 -8 -8 -8 -8 -9 -9 -9 -9 -9 -9 -9 -9 -10 -10 -10 -10
-8 -8 -9 -7 -7 -7 -8 -8 -8 -8 -8 -8 -8 -9 -9 -9 -9 -9 -9 -9 -9 -9 -9 -9 -8 -8 -8 -9 -9 -9 -9 -9 -9 -9 -10 -10 -10 -10 -10 -10 -10 -10 -10 -10
-8 -8 -8 -7 -7 -8 -8 -8 -8 -9 -9 -9 -9 -9 -9 -9 -9 -9 -9 -9 -9 -9 -9 -9 -9 -9 -9 -9 -9 -10 -10 -10 -10 -10 -10 -10 -10 -10 -10 -10 -10 -10 -10 -11
-8 -8 -8 -8 -8 -9 -9 -9 -9 -9 -9 -9 -9 -10 -10 -10 -10 -10 -10 -10 -10 -10 -10 -10 -10 -10 -10 -10 -10 -10 -10 -10 -10 -10 -10 -10 -11 -11 -11 -11 -11 -11 -11 -11
-9 -9 -9 -9 -9 -9 -9 -9 -9 -9 -10 -10 -10 -10 -10 -10 -10 -10 -10 -10 -10 -10 -10 -10 -10 -10 -10 -10 -10 -10 -11 -11 -11 -11 -11 -11 -11 -11 -11 -11 -11 -11 -11 -11
-9 -9 -9 -9 -9 -10 -10 -10 -10 -10 -10 -11 -11 -11 -11 -11 -11 -11 -11 -11 -11 -11 -11 -11 -11 -11 -11 -11 -11 -11 -11 -11 -11 -11 -11 -11 -11 -11 -12 -12 -12 -12 -12 -12
-10 -10 -10 -10 -10 -10 -10 -11 -11 -11 -11 -11 -11 -11 -11 -11 -11 -11 -11 -11 -11 -11 -11 -12 -12 -11 -11 -11 -11 -11 -11 -11 -12 -12 -12 -12 -12 -12 -12 -12 -12 -12 -12 -12
-10 -10 -10 -10 -10 -11 -11 -11 -11 -11 -12 -12 -12 -12 -12 -12 -12 -12 -12 -12 -12 -12 -12 -12 -12 -12 -12 -12 -12 -12 -12 -12 -12 -12 -12 -12 -12 -12 -12 -12 -12 -12 -12 -12
-10 -10 -11 -11 -11 -11 -11 -11 -11 -12 -12 -12 -12 -12 -12 -12 -12 -12 -12 -12 -12 -12 -12 -12 -12 -12 -12 -12 -12 -12 -12 -12 -12 -13 -13 -13 -13 -13 -13 -13 -13 -13 -13 -13
-11 -11 -11 -11 -11 -12 -12 -12 -12 -12 -12 -12 -13 -13 -13 -13 -13 -13 -13 -13 -13 -13 -13 -13 -13 -13 -13 -13 -13 -13 -13 -13 -13 -13 -13 -13 -13 -13 -13 -13 -13 -13 -13 -13
-11 -11 -11 -12 -12 -12 -12 -12 -12 -12 -13 -13 -13 -13 -13 -13 -13 -13 -13 -13 -13 -13 -13 -13 -13 -13 -13 -13 -13 -13 -13 -13 -13 -13 -13 -13 -13 -13 -13 -13 -14 -14 -14 -14
-11 -11 -12 -12 -12 -12 -13 -13 -13 -13 -13 -13 -13 -14 -14 -14 -14 -14 -14 -14 -14 -14 -14 -13 -13 -14 -14 -14 -14 -14 -14 -14 -14 -14 -14 -14 -14 -14 -14 -14 -14 -14 -14 -14
-12 -12 -12 -13 -13 -13 -13 -13 -13 -13 -13 -14 -14 -14 -14 -14 -14 -14 -14 -14 -14 -14 -14 -14 -14 -14 -14 -14 -14 -14 -14 -14 -14 -14 -14 -14 -14 -14 -14 -14 -14 -14 -14 -14
-12 -12 -13 -13 -13 -13 -13 -13 -14 -14 -14 -14 -14 -14 -14 -15 -14 -15 -15 -15 -15 -15 -14 -14 -14 -14 -14 -14 -14 -14 -14 -14 -14 -15 -15 -14 -14 -15 -15 -15 -15 -15 -15 -15
-13 -13 -13 -13 -13 -14 -14 -14 -14 -14 -14 -14 -14 -15 -15 -15 -15 -15 -15 -15 -15 -15 -15 -15 -15 -15 -15 -15 -15 -15 -15 -15 -15 -15 -15 -15 -15 -15 -15 -15 -15 -15 -15 -15
-13 -13 -13 -14 -14 -14 -14 -14 -15 -15 -15 -15 -15 -15 -15 -15 -15 -15 -15 -15 -15 -15 -15 -15 -15 -15 -15 -15 -15 -15 -15 -15 -15 -15 -15 -15 -15 -15 -15 -15 -15 -15 -15 -15
-13 -14 -14 -14 -14 -14 -15 -15 -15 -15 -15 -15 -15 -15 -16 -16 -16 -16 -16 -16 -16 -16 -16 -16 -16 -16 -15 -15 -15 -15 -15 -15 -15 -15 -15 -15 -15 -15 -15 -15 -15 -15 -15 -15
Wind_Speed
5 4 2 4 5 5 6 7 7 7 7 10 8 7 6 6 6 6 7 7 6 6 5 5 4 3 3 3 2 2 1 1 2 2 2 2 2 3 3 3 4 4 4 4
3 3 2 5 6 6 7 6 7 7 10 8 6 4 5 6 6 6 7 7 7 7 6 6 5 4 3 3 2 1 1 2 2 2 2 2 3 2 3 3 3 3 4 4
4 3 3 6 6 7 4 5 6 8 8 5 5 6 6 6 6 6 7 8 7 7 6 6 6 5 4 3 2 2 2 2 2 2 2 3 3 2 3 2 2 2 3 3
1 2 5 6 0 4 5 6 6 5 5 5 6 6 5 4 4 6 7 8 8 7 7 6 5 4 3 2 2 2 2 2 3 3 3 3 2 2 3 2 2 2 2 3
2 3 7 6 1 3 4 5 4 5 6 5 5 5 3 2 3 4 6 7 7 7 7 6 5 4 2 2 2 2 3 3 3 3 3 3 3 3 2 2 2 2 2 2
2 3 6 5 2 1 2 5 2 2 4 4 4 4 6 5 6 7 7 7 7 6 6 5 5 3 1 2 2 3 3 3 3 3 2 3 3 3 2 1 2 2 2 2
4 5 7 4 2 2 2 5 3 2 3 3 3 5 7 8 8 7 7 7 6 5 5 5 5 3 2 2 4 4 3 3 3 3 3 3 2 2 1 1 1 1 2 2
4 4 6 0 3 4 4 3 3 3 4 4 5 6 7 7 8 8 8 7 6 6 6 5 4 2 3 4 4 3 3 3 3 3 2 2 2 2 1 1 1 1 2 2
5 5 2 2 3 2 2 3 4 4 5 4 5 6 7 7 7 7 7 7 6 5 6 6 4 2 3 4 4 3 3 3 3 3 3 2 2 2 2 1 1 1 1 2
3 5 4 3 2 3 3 4 5 4 5 5 5 6 7 7 7 7 7 6 5 5 6 6 5 4 3 4 3 2 2 3 3 3 3 2 2 2 2 2 2 2 2 2
4 5 5 3 2 3 4 3 4 4 4 4 4 6 6 7 7 7 7 6 5 5 6 6 6 5 4 3 2 2 2 2 3 3 2 2 2 2 2 3 3 3 2 3
5 4 3 5 4 3 3 4 5 5 6 5 4 5 6 6 6 6 6 6 6 6 6 6 6 5 4 3 2 1 2 2 2 2 2 2 2 3 4 4 6 6 5 4
4 3 3 4 4 3 3 4 5 4 4 5 5 5 5 5 6 6 6 6 6 6 6 6 6 6 5 4 3 2 3 3 2 2 2 2 2 2 3 4 5 6 6 6
2 1 2 3 3 4 3 4 4 4 4 4 4 5 5 5 5 6 6 6 6 6 6 6 6 6 6 4 3 3 3 4 3 2 2 2 2 2 2 3 3 4 5 7
2 2 3 3 3 4 4 3 4 5 5 5 4 5 5 6 6 6 6 6 6 5 6 6 6 7 6 5 4 3 3 3 2 2 2 2 2 2 2 3 3 3 4 5
2 2 2 2 3 4 4 4 4 5 5 5 6 6 6 5 5 6 5 5 5 6 6 6 6 6 6 5 4 3 3 4 3 2 2 2 2 2 2 2 3 3 3 4
1 2 2 3 4 4 4 4 4 5 5 6 6 6 5 5 5 5 6 5 5 5 6 6 6 7 7 5 4 3 3 3 4 3 2 2 2 2 2 2 3 3 4 5
2 3 3 4 4 5 5 4 4 5 5 5 6 5 4 5 5 6 6 6 6 6 6 6 6 6 6 5 4 3 2 2 2 2 2 2 2 2 2 2 3 4 4 5
2 3 3 3 3 4 4 4 5 4 5 4 4 4 5 5 5 5 5 5 5 6 6 7 10 7 6 6 6 3 2 3 3 3 3 3 3 2 2 3 3 3 4 4
2 2 3 3 3 3 4 4 4 4 4 3 4 4 5 5 4 4 5 4 4 4 6 7 7 5 6 6 6 3 2 2 2 3 3 2 3 3 3 3 3 3 3 3
3 3 3 3 4 4 3 4 4 4 4 3 3 4 5 5 4 4 4 5 5 5 6 8 6 5 5 5 5 3 2 2 2 2 3 3 3 3 3 3 3 3 3 3
2 3 3 4 4 4 4 3 3 4 4 3 3 3 4 4 4 4 4 4 5 8 6 5 4 6 7 6 3 3 3 2 2 2 2 3 3 3 3 3 3 3 4 4
3 3 3 4 4 4 4 3 3 3 3 4 4 3 3 4 3 3 5 4 5 8 6 4 7 8 8 4 3 3 3 3 3 3 3 3 3 3 3 4 3 4 4 4
3 3 3 3 2 3 4 4 4 3 3 3 3 3 3 3 3 3 3 7 8 8 5 7 9 8 7 3 3 3 3 3 3 3 3 3 3 3 3 3 4 4 4 4
2 2 2 2 3 3 4 4 4 3 3 3 3 3 3 2 3 4 4 5 7 7 5 6 8 8 5 3 3 3 4 4 4 3 3 3 3 4 4 4 4 4 4 4
2 2 3 3 3 3 3 3 3 3 3 3 4 3 3 2 3 3 3 4 5 7 5 4 5 5 4 4 4 4 4 5 5 4 4 4 4 4 4 4 5 4 5 5
2 2 2 2 2 2 2 2 3 3 3 3 4 4 3 3 3 3 4 4 4 4 4 4 4 4 4 4 4 4 4 4 4 4 4 4 4 4 5 5 5 5 5 6
Wind_Direction
254 265 228 239 250 220 212 221 226 251 258 279 298 305 312 321 330 335 335 335 332 329 324 323 324 322 320 318 323 325 326 303 283 287 286 278 268 256 253 251 250 250 247 246
273 260 249 277 266 233 235 240 242 264 271 278 301 325 329 328 330 332 330 327 326 325 326 322 317 315 316 316 315 328 318 306 313 315 306 294 285 279 269 264 262 255 252 248
263 296 327 276 245 209 216 221 204 234 257 299 313 319 316 314 323 324 324 324 323 320 314 311 309 306 297 295 311 318 309 317 324 321 312 301 298 297 283 274 273 266 257 248
252 26 250 254 199 184 211 238 218 240 277 296 289 296 296 291 301 318 323 323 320 319 317 316 311 304 298 306 312 309 317 322 321 321 314 311 309 300 296 294 278 273 271 259
175 240 273 292 249 168 204 271 230 241 283 314 326 326 310 318 327 308 308 307 307 307 309 312 312 306 308 318 321 323 318 314 310 306 307 312 308 301 305 310 309 306 291 282
171 209 246 264 305 226 114 292 303 239 276 305 351 327 303 324 322 317 315 312 312 314 318 319 317 315 312 309 310 300 299 299 299 300 298 297 295 302 315 310 306 308 305 301
204 231 261 275 294 122 160 269 321 286 279 279 265 262 289 308 315 315 314 315 316 316 317 312 314 315 305 305 295 295 303 308 311 306 297 289 291 300 302 309 328 322 308 304
183 217 258 301 114 170 233 303 307 299 294 283 287 296 302 308 314 319 320 320 322 322 318 317 316 309 302 300 298 309 313 314 316 312 306 307 313 314 314 310 329 318 313 311
199 220 274 160 201 254 285 288 296 296 301 298 300 303 309 312 313 315 314 316 320 317 315 319 317 302 292 301 312 319 323 319 317 319 321 314 301 300 307 296 282 295 304 306
251 269 271 266 278 308 300 287 294 297 301 307 301 304 309 312 315 318 317 316 318 319 318 320 321 318 295 302 313 315 315 317 318 321 321 323 311 296 292 286 280 278 284 293
263 287 309 296 275 299 315 314 315 317 311 301 298 303 305 310 313 314 318 320 320 316 313 313 320 319 315 313 314 314 311 313 316 313 306 312 315 299 289 272 264 270 268 271
243 260 248 277 297 317 313 314 313 317 322 321 308 300 308 308 310 314 318 323 324 323 322 320 322 319 316 311 299 288 299 306 301 299 300 304 309 316 303 297 298 301 298 294
253 280 269 286 311 322 312 313 318 316 311 316 321 313 312 310 316 321 323 325 325 324 323 322 323 322 319 315 305 284 276 283 284 288 293 294 296 300 310 314 312 314 315 313
281 306 294 292 298 316 321 323 327 326 322 315 314 319 320 316 319 324 323 323 324 326 326 325 325 322 321 318 311 297 285 279 283 277 279 282 282 283 286 299 312 316 317 317
288 259 261 291 314 328 332 337 339 334 333 332 330 328 327 322 320 320 321 326 331 332 330 329 327 322 322 321 314 299 292 285 282 283 283 283 284 283 283 287 294 307 315 319
312 314 291 301 309 319 327 330 325 319 322 323 323 321 317 312 311 314 323 331 334 330 326 324 320 320 325 324 319 308 294 295 302 297 295 294 288 283 283 287 291 299 303 307
339 318 308 308 306 307 307 302 299 302 307 309 310 313 317 321 322 326 329 331 324 317 316 317 319 323 326 326 320 312 311 308 312 310 295 287 284 279 280 285 290 296 298 302
239 257 262 263 278 293 303 306 302 303 301 301 310 315 319 319 316 317 322 328 331 331 331 331 327 329 332 331 327 324 324 320 319 312 302 290 288 283 283 284 289 294 302 309
287 282 284 283 280 281 289 296 300 301 301 306 310 308 305 304 306 312 321 328 330 329 331 331 334 342 335 332 340 341 336 329 328 324 316 309 315 304 296 293 294 296 301 307
301 300 297 297 299 288 289 295 298 301 302 303 304 309 313 313 314 318 324 320 309 303 311 320 329 333 330 331 342 343 337 331 328 325 325 321 317 312 309 307 305 305 305 307
299 301 300 301 306 302 294 294 297 300 304 300 293 296 301 306 311 315 319 317 316 318 322 328 336 328 326 334 342 344 339 332 327 323 324 324 322 318 316 313 310 309 307 308
288 293 296 301 304 306 308 304 296 298 304 304 299 298 305 311 318 318 303 289 305 319 329 325 324 327 340 349 352 346 340 333 326 321 319 318 316 313 315 314 309 306 303 303
288 291 295 297 297 301 310 310 304 298 295 295 293 293 295 298 302 303 309 311 313 319 329 321 325 335 348 1 354 346 337 328 319 312 308 307 305 302 303 304 303 303 303 302
290 295 296 301 304 306 309 313 312 306 297 294 290 287 291 302 307 294 288 306 319 322 327 323 334 339 347 358 344 337 330 321 312 306 303 301 299 297 295 296 297 298 298 300
292 292 293 298 299 297 299 309 316 314 313 314 312 308 300 284 283 302 309 309 316 325 326 325 332 338 346 338 331 325 321 314 309 307 306 308 304 299 295 292 289 290 292 292
291 287 283 276 275 284 295 301 305 308 312 314 315 313 312 312 302 302 308 311 311 320 324 322 325 328 334 329 323 319 316 317 321 320 310 305 300 298 295 293 289 287 287 286
310 306 305 307 304 298 299 300 300 302 302 297 300 307 315 316 313 313 312 314 316 317 317 319 320 321 320 320 317 316 314 313 312 310 309 305 302 298 295 292 291 287 288 286
Height
1493 1491 1491 1491 1491 1493 1493 1489 1488 1483 1483 1476 1474 1473 1471 1469 1467 1465 1464 1462 1461 1459 1457 1456 1455 1454 1453 1453 1453 1453 1452 1452 1452 1452 1452 1451 1451 1451 1451 1451 1452 1452 1452 1452
1493 1490 1491 1489 1486 1488 1489 1489 1488 1485 1481 1474 1473 1472 1470 1468 1467 1465 1463 1461 1460 1458 1456 1455 1453 1452 1451 1450 1450 1450 1449 1448 1448 1448 1448 1447 1447 1447 1446 1446 1446 1446 1446 1446
1491 1492 1489 1486 1482 1484 1485 1484 1483 1481 1476 1473 1472 1471 1470 1468 1466 1464 1462 1460 1458 1456 1454 1453 1451 1450 1448 1448 1447 1447 1446 1445 1445 1444 1444 1443 1443 1442 1442 1441 1441 1441 1441 1441
1493 1493 1489 1477 1477 1477 1479 1478 1478 1475 1473 1472 1471 1469 1467 1466 1465 1463 1461 1459 1456 1454 1452 1451 1449 1448 1447 1445 1445 1444 1443 1442 1441 1441 1440 1440 1439 1438 1438 1437 1437 1436 1436 1437
1494 1493 1485 1477 1476 1478 1479 1475 1473 1473 1471 1471 1469 1467 1464 1464 1463 1462 1460 1457 1455 1452 1450 1448 1447 1445 1444 1443 1442 1441 1440 1439 1439 1438 1437 1436 1435 1434 1434 1433 1432 1432 1432 1432
1494 1490 1485 1475 1476 1474 1477 1476 1471 1470 1470 1470 1469 1469 1465 1462 1461 1459 1457 1455 1452 1450 1448 1446 1444 1443 1442 1440 1439 1438 1437 1437 1436 1435 1434 1433 1432 1431 1431 1430 1429 1429 1428 1428
1493 1491 1481 1477 1475 1475 1479 1475 1471 1469 1469 1469 1468 1468 1464 1460 1458 1456 1454 1452 1450 1447 1445 1444 1442 1441 1439 1438 1437 1436 1435 1434 1433 1432 1432 1431 1429 1429 1428 1427 1426 1425 1425 1424
1492 1490 1482 1475 1475 1477 1475 1471 1470 1468 1467 1466 1465 1463 1461 1458 1456 1453 1451 1449 1447 1444 1443 1441 1440 1438 1436 1435 1434 1433 1432 1431 1430 1429 1428 1427 1427 1426 1425 1424 1423 1422 1421 1421
1482 1479 1475 1473 1472 1472 1471 1470 1468 1467 1465 1464 1462 1460 1458 1455 1453 1451 1448 1446 1444 1442 1440 1439 1438 1436 1434 1433 1432 1430 1429 1428 1427 1426 1425 1425 1424 1423 1422 1421 1420 1419 1418 1417
1480 1474 1472 1471 1470 1470 1469 1468 1466 1465 1464 1462 1460 1458 1455 1453 1450 1448 1446 1444 1441 1439 1437 1436 1435 1433 1432 1430 1429 1428 1426 1425 1424 1423 1422 1422 1421 1420 1419 1418 1417 1416 1415 1415
1478 1473 1470 1468 1468 1468 1467 1466 1464 1463 1461 1460 1458 1455 1453 1451 1448 1446 1443 1441 1439 1437 1435 1433 1432 1430 1429 1428 1426 1425 1424 1423 1422 1421 1420 1419 1418 1418 1416 1416 1416 1415 1413 1413
1473 1470 1470 1468 1466 1466 1464 1463 1462 1460 1458 1457 1455 1453 1451 1449 1446 1444 1441 1439 1437 1435 1433 1431 1429 1428 1427 1425 1424 1422 1421 1420 1419 1418 1418 1416 1415 1415 1414 1414 1413 1412 1412 1411
1469 1467 1467 1466 1464 1464 1462 1461 1460 1458 1456 1454 1453 1451 1448 1446 1444 1442 1440 1437 1435 1432 1430 1428 1426 1425 1424 1423 1421 1420 1419 1418 1417 1416 1415 1414 1413 1412 1411 1411 1410 1409 1408 1408
1466 1466 1464 1463 1462 1461 1460 1459 1457 1456 1454 1453 1450 1448 1446 1444 1442 1440 1437 1435 1433 1431 1428 1427 1425 1423 1422 1420 1419 1418 1416 1415 1414 1413 1413 1412 1411 1410 1409 1407 1406 1405 1405 1404
1464 1463 1463 1461 1460 1459 1458 1456 1455 1453 1451 1450 1448 1446 1444 1442 1439 1437 1435 1433 1431 1429 1427 1425 1423 1421 1420 1418 1417 1415 1414 1413 1412 1411 1410 1409 1408 1407 1406 1405 1404 1403 1402 1401
1462 1461 1460 1459 1458 1457 1456 1454 1452 1450 1449 1447 1445 1444 1442 1440 1438 1435 1433 1431 1429 1426 1425 1423 1421 1419 1418 1416 1414 1413 1411 1410 1409 1408 1407 1406 1405 1404 1403 1402 1401 1400 1399 1398
1459 1458 1457 1456 1455 1454 1453 1452 1450 1449 1447 1445 1443 1441 1439 1437 1435 1433 1431 1430 1428 1425 1423 1421 1419 1417 1415 1414 1412 1410 1409 1408 1407 1406 1404 1403 1402 1401 1401 1400 1399 1398 1397 1396
1458 1457 1456 1455 1454 1452 1451 1450 1448 1446 1445 1443 1441 1439 1437 1435 1433 1431 1429 1427 1425 1423 1422 1419 1417 1415 1413 1412 1410 1408 1407 1406 1404 1403 1402 1401 1400 1399 1398 1397 1396 1395 1394 1393
1456 1455 1454 1453 1452 1450 1449 1447 1445 1444 1442 1440 1438 1436 1434 1433 1431 1429 1427 1425 1423 1421 1419 1418 1416 1413 1411 1410 1408 1407 1405 1404 1402 1401 1400 1399 1398 1397 1396 1395 1394 1393 1392 1390
1453 1452 1451 1450 1449 1448 1446 1444 1443 1441 1440 1438 1436 1434 1432 1431 1429 1427 1425 1424 1422 1420 1418 1416 1414 1412 1410 1408 1407 1405 1404 1402 1401 1399 1398 1397 1396 1394 1394 1393 1391 1390 1389 1388
1451 1450 1448 1447 1446 1445 1443 1442 1440 1438 1437 1435 1433 1431 1430 1428 1427 1425 1423 1422 1421 1419 1417 1415 1413 1411 1409 1407 1405 1404 1402 1401 1399 1398 1396 1395 1394 1392 1391 1390 1389 1388 1387 1385
1448 1447 1446 1444 1443 1442 1440 1439 1437 1435 1434 1432 1431 1429 1427 1426 1424 1423 1422 1420 1419 1417 1415 1413 1411 1409 1408 1406 1404 1402 1401 1399 1398 1396 1395 1393 1392 1390 1389 1388 1387 1385 1384 1383
1446 1444 1443 1442 1440 1439 1437 1436 1435 1433 1431 1430 1428 1427 1425 1424 1423 1421 1419 1418 1417 1415 1413 1411 1410 1408 1406 1404 1402 1401 1399 1398 1396 1395 1393 1392 1390 1389 1387 1386 1385 1383 1382 1381
1443 1442 1441 1439 1438 1436 1435 1433 1432 1430 1429 1427 1426 1425 1423 1422 1420 1420 1418 1416 1415 1413 1411 1410 1408 1406 1404 1402 1401 1399 1397 1396 1394 1393 1392 1390 1389 1387 1386 1384 1383 1381 1380 1378
1440 1439 1438 1437 1435 1434 1432 1430 1429 1427 1426 1425 1423 1422 1421 1420 1419 1417 1416 1414 1412 1411 1409 1408 1406 1404 1402 1400 1399 1397 1396 1394 1392 1391 1390 1388 1387 1385 1384 1382 1381 1379 1377 1376
1438 1436 1435 1434 1433 1431 1430 1428 1426 1425 1424 1422 1421 1420 1419 1417 1416 1415 1413 1412 1410 1409 1407 1405 1404 1402 1400 1399 1397 1395 1394 1392 1390 1389 1388 1386 1384 1383 1381 1380 1378 1376 1375 1373
1435 1434 1433 1431 1430 1429 1427 1426 1425 1423 1422 1420 1419 1418 1416 1415 1413 1412 1411 1409 1408 1406 1404 1403 1401 1399 1398 1396 1395 1393 1391 1390 1388 1386 1385 1383 1382 1380 1379 1377 1375 1374 1372 1371